User: anonymous   Login
Location: Tyler Bend Campground
(35.9875°N, 92.7606°W)
Time: 20:19:43
(UTC-05:00)
Language:

CZ-2C R/B - Orbit

View from above orbital plane
View from above orbital plane
View from above satellite
View from above satellite

Ground track
Ground track

The orbit data is extracted from the following two-line orbital elements,

1 36089U 09061B   16181.66901213  .00000028  00000-0  18021-4 0  9993
2 36089  98.0509 193.2086 0083211  52.0171  61.7707 14.49583366350633
Epoch (UTC): 29 June 2016 16:03:22
Eccentricity: 0.0083211
inclination: 98.0509°
perigee height: 668 km
apogee height: 786 km
right ascension of ascending node: 193.2086°
argument of perigee: 52.0171°
revolutions per day: 14.49583366
mean anomaly at epoch: 61.7707°
orbit number at epoch: 35063

The dashed part of the orbit path shows where the satellite is in the earth's shadow,  

DLR